Alma, MI

7:23 PM EST on November 21, 2019 (GMT -0500)
Gratiot Community

Weather History for KAMN - June, 2019

Change the Weather History Date:

Sunday, June 2, 2019

  Actual Average Record
Temperature  
Mean Temperature 59 °F -  
Max Temperature 69 °F 74 °F 92 °F (1988)
Min Temperature 49 °F 49 °F 35 °F (2003)
Degree Days  
Heating Degree Days 6    
Growing Degree Days 9 (Base 50)    
Moisture  
Dew Point 43 °F    
Average Humidity 58    
Maximum Humidity 95    
Minimum Humidity 22    
Precipitation  
Precipitation 0.00 in - - ()
Sea Level Pressure  
Sea Level Pressure 29.88 in    
Wind  
Wind Speed 6 mph (NNW)    
Max Wind Speed 18 mph    
Max Gust Speed 24 mph    
Visibility 10 miles    
Events      
Averages and records for this station are not official NWS values.
T = Trace of Precipitation, MM = Missing Value Source: NWS Daily Summary

Daily Weather History Graph

Daily Weather History Graph

Search for Another Location

Airport or City:

Astronomy

Jun. 02, 2019 Rise Set
Actual Time 6:00 AM EDT 9:12 PM EDT
Civil Twilight 5:26 AM EDT 9:47 PM EDT
Nautical Twilight 4:41 AM EDT 10:32 PM EDT
Astronomical Twilight 3:46 AM EDT 11:27 PM EDT
Moon 5:43 AM EDT (6/2) 8:28 PM EDT (6/2)
Length of Visible Light 16h 21m
Length of Day
15h 12m
Waning Crescent, 1% of the Moon is Illuminated
Jun 2
Waning Crescent
Jun 3
New
Jun 10
First Quarter
Jun 17
Full
Jun 25
Last Quarter

Hourly Weather History & Observations

Time (EDT) Temp. Dew Point Humidity Pressure Visibility Wind Dir Wind Speed Gust Speed Precip Events Conditions
12:15 AM 60.8 °F 59.0 °F 94% 29.75 in 3.0 mi West 3.5 mph - N/A   Overcast
12:16 AM 60.8 °F 59.0 °F 94% 29.75 in 4.0 mi West 3.5 mph - N/A   Overcast
12:36 AM 61.2 °F 59.7 °F 95% 29.75 in 7.0 mi WNW 4.6 mph - N/A   Overcast
12:55 AM 61.3 °F 59.5 °F 94% 29.76 in 10.0 mi Calm Calm - N/A   Overcast
12:56 AM 61.3 °F 59.5 °F 94% 29.76 in 10.0 mi Calm Calm - N/A   Overcast
1:15 AM 61.0 °F 59.2 °F 94% 29.77 in 10.0 mi Calm Calm - N/A   Overcast
1:35 AM 60.8 °F 58.6 °F 93% 29.77 in 10.0 mi North 3.5 mph - N/A   Overcast
1:55 AM 60.8 °F 58.6 °F 93% 29.77 in 10.0 mi North 5.8 mph - N/A   Overcast
1:56 AM 60.8 °F 58.6 °F 93% 29.77 in 10.0 mi North 5.8 mph - N/A   Overcast
2:15 AM 60.1 °F 57.7 °F 92% 29.78 in 2.5 mi NE 9.2 mph - N/A   Overcast
2:16 AM 59.9 °F 57.6 °F 92% 29.78 in 2.5 mi NE 8.1 mph - N/A   Overcast
2:35 AM 59.0 °F 57.2 °F 94% 29.78 in 5.0 mi NNE 4.6 mph - N/A   Overcast
2:37 AM 59.0 °F 57.2 °F 94% 29.78 in 7.0 mi Calm Calm - N/A   Overcast
2:55 AM 58.6 °F 56.5 °F 93% 29.78 in 7.0 mi North 3.5 mph - N/A   Overcast
2:56 AM 58.6 °F 56.5 °F 93% 29.78 in 7.0 mi North 4.6 mph - N/A   Overcast
3:15 AM 58.1 °F 55.9 °F 93% 29.78 in 7.0 mi North 4.6 mph - N/A   Overcast
3:16 AM 58.1 °F 55.8 °F 92% 29.78 in 7.0 mi North 3.5 mph - N/A   Overcast
3:36 AM 57.0 °F 53.8 °F 89% 29.78 in 10.0 mi NNE 5.8 mph - N/A   Overcast
3:55 AM 56.7 °F 53.1 °F 88% 29.79 in 10.0 mi North 6.9 mph - N/A   Overcast
4:15 AM 56.5 °F 52.7 °F 87% 29.79 in 10.0 mi North 3.5 mph - N/A   Overcast
4:35 AM 56.3 °F 52.5 °F 87% 29.79 in 10.0 mi NNW 3.5 mph - N/A   Overcast
4:36 AM 56.3 °F 52.5 °F 87% 29.79 in 10.0 mi NNW 3.5 mph - N/A   Overcast
4:55 AM 55.9 °F 52.7 °F 89% 29.80 in 10.0 mi North 5.8 mph - N/A   Mostly Cloudy
5:15 AM 55.4 °F 52.5 °F 90% 29.81 in 10.0 mi NNW 4.6 mph - N/A   Scattered Clouds
5:35 AM 54.5 °F 51.8 °F 91% 29.81 in 10.0 mi North 4.6 mph - N/A   Clear
5:36 AM 54.3 °F 51.6 °F 91% 29.81 in 10.0 mi North 4.6 mph - N/A   Clear
5:55 AM 53.6 °F 51.1 °F 91% 29.81 in 10.0 mi North 3.5 mph - N/A   Clear
6:15 AM 52.9 °F 50.5 °F 92% 29.81 in 10.0 mi North 3.5 mph - N/A   Clear
6:35 AM 52.7 °F 50.2 °F 91% 29.82 in 10.0 mi NNW 3.5 mph - N/A   Clear
6:55 AM 52.7 °F 50.5 °F 92% 29.83 in 10.0 mi NNW 4.6 mph - N/A   Clear
6:56 AM 52.7 °F 50.7 °F 93% 29.83 in 10.0 mi NNW 4.6 mph - N/A   Clear
7:16 AM 54.0 °F 51.8 °F 92% 29.84 in 10.0 mi Calm Calm - N/A   Clear
7:35 AM 54.9 °F 52.0 °F 90% 29.85 in 10.0 mi Calm Calm - N/A   Mostly Cloudy
7:55 AM 56.3 °F 50.7 °F 82% 29.85 in 10.0 mi NNE 3.5 mph - N/A   Mostly Cloudy
7:56 AM 56.3 °F 50.5 °F 81% 29.85 in 10.0 mi NNE 3.5 mph - N/A   Mostly Cloudy
8:15 AM 56.5 °F 48.6 °F 75% 29.86 in 10.0 mi North 4.6 mph - N/A   Mostly Cloudy
8:16 AM 56.5 °F 48.4 °F 74% 29.86 in 10.0 mi North 4.6 mph - N/A   Mostly Cloudy
8:35 AM 56.7 °F 47.7 °F 72% 29.86 in 10.0 mi NNE 6.9 mph - N/A   Mostly Cloudy
8:55 AM 57.0 °F 46.9 °F 69% 29.86 in 10.0 mi NNE 3.5 mph - N/A   Overcast
8:56 AM 57.2 °F 47.1 °F 69% 29.86 in 10.0 mi NNE 3.5 mph - N/A   Overcast
9:15 AM 58.8 °F 46.8 °F 64% 29.86 in 10.0 mi NE 3.5 mph - N/A   Scattered Clouds
9:16 AM 58.8 °F 46.6 °F 64% 29.87 in 10.0 mi NE 4.6 mph - N/A   Scattered Clouds
9:35 AM 59.2 °F 46.4 °F 63% 29.87 in 10.0 mi Calm Calm - N/A   Clear
9:56 AM 60.1 °F 45.9 °F 59% 29.88 in 10.0 mi NNE 3.5 mph - N/A   Clear
10:15 AM 60.4 °F 46.0 °F 59% 29.89 in 10.0 mi NNW 3.5 mph - N/A   Clear
10:35 AM 61.2 °F 43.2 °F 52% 29.89 in 10.0 mi NNE 3.5 mph - N/A   Clear
10:56 AM 63.0 °F 43.9 °F 50% 29.89 in 10.0 mi NW 4.6 mph - N/A   Clear
11:15 AM 63.7 °F 44.4 °F 50% 29.89 in 10.0 mi North 5.8 mph - N/A   Clear
11:16 AM 63.7 °F 44.2 °F 49% 29.89 in 10.0 mi North 5.8 mph - N/A   Clear
11:35 AM 64.0 °F 44.6 °F 49% 29.89 in 10.0 mi WNW 3.5 mph - N/A   Clear
11:55 AM 64.9 °F 45.0 °F 48% 29.89 in 10.0 mi West 5.8 mph - N/A   Clear
12:15 PM 65.3 °F 43.7 °F 46% 29.89 in 10.0 mi West 3.5 mph - N/A   Mostly Cloudy
12:17 PM 64.9 °F 43.9 °F 46% 29.89 in 10.0 mi NW 6.9 mph - N/A   Mostly Cloudy
12:35 PM 65.7 °F 44.4 °F 46% 29.89 in 10.0 mi West 5.8 mph - N/A   Mostly Cloudy
12:36 PM 65.8 °F 44.6 °F 46% 29.89 in 10.0 mi West 4.6 mph - N/A   Mostly Cloudy
12:55 PM 68.0 °F 44.6 °F 43% 29.89 in 10.0 mi WNW 10.4 mph - N/A   Mostly Cloudy
12:56 PM 67.8 °F 44.1 °F 42% 29.89 in 10.0 mi West 9.2 mph - N/A   Mostly Cloudy
1:15 PM 65.7 °F 41.2 °F 41% 29.89 in 10.0 mi WNW 13.8 mph - N/A   Mostly Cloudy
1:35 PM 66.4 °F 42.3 °F 41% 29.89 in 10.0 mi West 11.5 mph 18.4 mph N/A   Scattered Clouds
1:55 PM 68.9 °F 38.3 °F 33% 29.88 in 10.0 mi WNW 13.8 mph 23.0 mph N/A   Mostly Cloudy
2:15 PM 68.7 °F 39.2 °F 34% 29.88 in 10.0 mi WNW 11.5 mph 21.9 mph N/A   Mostly Cloudy
2:35 PM 68.9 °F 39.6 °F 34% 29.88 in 10.0 mi WNW 13.8 mph 20.7 mph N/A   Mostly Cloudy
2:36 PM 69.1 °F 39.4 °F 34% 29.88 in 10.0 mi WNW 18.4 mph 23.0 mph N/A   Mostly Cloudy
2:55 PM 69.8 °F 38.1 °F 31% 29.88 in 10.0 mi West 13.8 mph 17.3 mph N/A   Scattered Clouds
3:15 PM 68.2 °F 37.2 °F 32% 29.88 in 10.0 mi NW 10.4 mph 19.6 mph N/A   Mostly Cloudy
3:16 PM 68.5 °F 37.0 °F 31% 29.88 in 10.0 mi WNW 12.7 mph 20.7 mph N/A   Mostly Cloudy
3:35 PM 68.4 °F 33.8 °F 28% 29.88 in 10.0 mi WNW 13.8 mph 21.9 mph N/A   Mostly Cloudy
3:36 PM 68.2 °F 33.6 °F 28% 29.88 in 10.0 mi WNW 12.7 mph 21.9 mph N/A   Mostly Cloudy
3:56 PM 68.4 °F 33.8 °F 28% 29.89 in 10.0 mi NW 15.0 mph 21.9 mph N/A   Scattered Clouds
4:15 PM 67.3 °F 36.1 °F 32% 29.89 in 10.0 mi NW 9.2 mph 17.3 mph N/A   Scattered Clouds
4:36 PM 68.2 °F 32.0 °F 26% 29.89 in 10.0 mi WNW 16.1 mph 21.9 mph N/A   Scattered Clouds
4:55 PM 68.0 °F 28.8 °F 23% 29.90 in 10.0 mi WNW 16.1 mph 20.7 mph N/A   Clear
5:15 PM 67.3 °F 27.7 °F 23% 29.91 in 10.0 mi WNW 15.0 mph 21.9 mph N/A   Clear
5:16 PM 67.1 °F 27.5 °F 23% 29.91 in 10.0 mi WNW 11.5 mph 21.9 mph N/A   Clear
5:36 PM 67.1 °F 30.6 °F 26% 29.91 in 10.0 mi NW 15.0 mph 20.7 mph N/A   Clear
5:55 PM 66.2 °F 26.1 °F 22% 29.92 in 10.0 mi NW 18.4 mph 24.2 mph N/A   Clear
5:56 PM 66.0 °F 25.9 °F 22% 29.92 in 10.0 mi NW 17.3 mph 24.2 mph N/A   Clear
6:15 PM 65.3 °F 26.1 °F 23% 29.93 in 10.0 mi WNW 15.0 mph 21.9 mph N/A   Clear
6:17 PM 65.3 °F 25.9 °F 23% 29.93 in 10.0 mi WNW 16.1 mph 21.9 mph N/A   Clear
6:36 PM 64.6 °F 27.0 °F 24% 29.94 in 10.0 mi WNW 12.7 mph 20.7 mph N/A   Clear
6:55 PM 63.9 °F 28.4 °F 26% 29.94 in 10.0 mi NNW 11.5 mph 19.6 mph N/A   Clear
7:16 PM 63.0 °F 29.3 °F 28% 29.94 in 10.0 mi WNW 6.9 mph 18.4 mph N/A   Clear
7:35 PM 62.2 °F 30.9 °F 31% 29.94 in 10.0 mi North 8.1 mph - N/A   Clear
7:36 PM 62.1 °F 30.6 °F 31% 29.95 in 10.0 mi North 8.1 mph - N/A   Clear
7:55 PM 60.8 °F 30.0 °F 31% 29.95 in 10.0 mi North 10.4 mph - N/A   Clear
7:57 PM 60.8 °F 30.2 °F 31% 29.95 in 10.0 mi North 6.9 mph - N/A   Clear
8:15 PM 59.9 °F 30.0 °F 32% 29.96 in 10.0 mi NNW 9.2 mph - N/A   Clear
8:16 PM 59.9 °F 30.2 °F 33% 29.96 in 10.0 mi NNW 11.5 mph - N/A   Clear
8:35 PM 58.5 °F 31.1 °F 35% 29.96 in 10.0 mi North 8.1 mph - N/A   Clear
8:36 PM 58.5 °F 30.9 °F 35% 29.96 in 10.0 mi North 8.1 mph - N/A   Clear
8:55 PM 57.2 °F 31.8 °F 38% 29.97 in 10.0 mi North 6.9 mph - N/A   Clear
8:56 PM 57.0 °F 31.8 °F 38% 29.97 in 10.0 mi North 6.9 mph - N/A   Clear
9:15 PM 55.4 °F 32.0 °F 41% 29.97 in 10.0 mi North 5.8 mph - N/A   Clear
9:36 PM 54.1 °F 33.1 °F 45% 29.98 in 10.0 mi North 4.6 mph - N/A   Clear
9:55 PM 53.1 °F 34.3 °F 49% 29.99 in 10.0 mi North 3.5 mph - N/A   Clear
9:56 PM 52.9 °F 34.3 °F 49% 29.99 in 10.0 mi North 3.5 mph - N/A   Clear
10:15 PM 52.7 °F 33.6 °F 48% 29.99 in 10.0 mi NNW 6.9 mph - N/A   Clear
10:16 PM 52.7 °F 33.6 °F 48% 29.99 in 10.0 mi NNW 5.8 mph - N/A   Clear
10:35 PM 51.4 °F 33.8 °F 51% 30.01 in 10.0 mi North 4.6 mph - N/A   Clear
10:36 PM 51.6 °F 33.8 °F 51% 30.01 in 10.0 mi North 4.6 mph - N/A   Clear
10:55 PM 52.2 °F 32.4 °F 47% 30.02 in 10.0 mi North 8.1 mph - N/A   Clear
11:15 PM 51.4 °F 32.0 °F 47% 30.03 in 10.0 mi NNW 9.2 mph - N/A   Clear
11:16 PM 51.3 °F 32.0 °F 48% 30.03 in 10.0 mi NNW 9.2 mph - N/A   Clear
11:35 PM 50.9 °F 31.1 °F 47% 30.03 in 10.0 mi North 10.4 mph - N/A   Clear
11:55 PM 49.8 °F 29.7 °F 46% 30.03 in 10.0 mi NNW 6.9 mph - N/A   Clear
11:57 PM 49.8 °F 29.3 °F 45% 30.03 in 10.0 mi NNW 6.9 mph - N/A   Clear